Location: Bergnershof
(48.9468°N, 10.9431°E)
Time: 21:42:02
(UTC+00:00)

Terra - Pass Details

Date: 03 March 2021
Orbit: 701 x 703 km, 98.2° (Epoch: 13 April)

Event Time Altitude Azimuth Distance (km) Brightness Sun altitude
Exits shadow 19:42:41 12° 23° (NNE) 2,044 4.2 -26.6°
Drops below altitude 10° 19:43:15 10° 17° (NNE) 2,183 4.4 -26.6°
Sets 19:46:10 0° 359° (N) 3,107 5.5 -27.1°
